Weather History for Christchurch, New Zealand

Change the Weather History Date:

Friday, August 30, 2013

  Actual Average Record
Temperature  
Mean Temperature 44 °F -  
Max Temperature 50 °F 56 °F - ()
Min Temperature 39 °F 37 °F - ()
Degree Days  
Heating Degree Days 20    
Moisture  
Dew Point 40 °F    
Average Humidity 80    
Maximum Humidity 100    
Minimum Humidity 62    
Precipitation  
Precipitation 0.00 in - - ()
Sea Level Pressure  
Sea Level Pressure 30.32 in    
Wind  
Wind Speed 6 mph ()    
Max Wind Speed 12 mph    
Max Gust Speed -    
Visibility 6.2 miles    
Events Rain    
T = Trace of Precipitation, MM = Missing Value Source: Averaged Metar Reports

Daily Weather History Graph

Daily Weather History Graph

Search for Another Location

Airport:

Trip Planner

Search our weather history database for the weather conditions in past years. The results will help you decide how hot, cold, wet, or windy it might be!

Date:

Astronomy

Aug. 30, 2013 Rise Set
Actual Time 7:00 AM NZST 6:00 PM NZST
Civil Twilight 6:31 AM NZST 6:29 PM NZST
Nautical Twilight 5:58 AM NZST 7:02 PM NZST
Astronomical Twilight 5:25 AM NZST 7:36 PM NZST
Moon 2:34 AM NZST (8/30) 12:12 PM NZST (8/30)
Length of Visible Light 11h 57m
Length of Day
11h 00m
Waning Crescent, 35% of the Moon is Illuminated
Aug 30
Waning Crescent
Sep 5
New
Sep 13
First Quarter
Sep 19
Full
Sep 27
Last Quarter

Hourly Weather History & Observations

Time (NZST) Temp. Windchill Dew Point Humidity Pressure Visibility Wind Dir Wind Speed Gust Speed Precip Events Conditions
12:00 AM 44.6 °F 40.7 °F 42.8 °F 93% 30.18 in 6.2 mi SSW 6.9 mph - N/A Rain Rain
1:00 AM 44.6 °F 41.4 °F 44.6 °F 100% 30.18 in 6.2 mi West 5.8 mph - N/A   Mostly Cloudy
2:00 AM 46.4 °F 41.9 °F 44.6 °F 93% 30.21 in 6.2 mi WSW 9.2 mph - N/A Rain Rain Showers
3:00 AM 46.4 °F 42.9 °F 42.8 °F 87% 30.21 in 6.2 mi SW 6.9 mph - N/A Rain Light Rain
4:00 AM 44.6 °F 40.2 °F 41.0 °F 87% 30.21 in 6.2 mi SW 8.1 mph - N/A   Mostly Cloudy
5:00 AM 44.6 °F 39.7 °F 39.2 °F 81% 30.24 in 6.2 mi SW 9.2 mph - N/A Rain Light Rain Showers
6:00 AM 44.6 °F 40.7 °F 41.0 °F 87% 30.27 in 6.2 mi WSW 6.9 mph - N/A   Drizzle
7:00 AM 44.6 °F 42.2 °F 41.0 °F 87% 30.30 in 6.2 mi West 4.6 mph - N/A   Drizzle
8:00 AM 44.6 °F 40.2 °F 39.2 °F 81% 30.33 in 6.2 mi SW 8.1 mph - N/A   Mostly Cloudy
9:00 AM 46.4 °F 44.3 °F 41.0 °F 81% 30.36 in 6.2 mi WSW 4.6 mph - N/A   Mostly Cloudy
10:00 AM 46.4 °F 43.5 °F 42.8 °F 87% 30.36 in 6.2 mi SW 5.8 mph - N/A   Mostly Cloudy
11:00 AM 50.0 °F - 39.2 °F 66% 30.36 in 6.2 mi SSW 11.5 mph - N/A   Mostly Cloudy
12:00 PM 50.0 °F - 39.2 °F 66% 30.36 in 6.2 mi SSW 11.5 mph - N/A   Mostly Cloudy
1:00 PM 50.0 °F - 37.4 °F 62% 30.36 in 6.2 mi South 10.4 mph - N/A   Mostly Cloudy
2:00 PM 50.0 °F - 39.2 °F 66% 30.36 in 6.2 mi SSW 10.4 mph - N/A   Mostly Cloudy
3:00 PM 50.0 °F - 39.2 °F 66% 30.36 in 6.2 mi South 5.8 mph - N/A   Mostly Cloudy
4:00 PM 50.0 °F - 37.4 °F 62% 30.36 in 6.2 mi South 6.9 mph - N/A   Mostly Cloudy
5:00 PM 50.0 °F - 37.4 °F 62% 30.36 in 6.2 mi South 3.5 mph - N/A   Partly Cloudy
6:00 PM 46.4 °F - 37.4 °F 71% 30.36 in 6.2 mi South 2.3 mph - N/A   Partly Cloudy
7:00 PM 44.6 °F 42.2 °F 39.2 °F 81% 30.39 in 6.2 mi North 4.6 mph - N/A   Partly Cloudy
8:00 PM 39.2 °F 35.9 °F 35.6 °F 87% 30.39 in 6.2 mi NE 4.6 mph - N/A   Partly Cloudy
9:00 PM 39.2 °F 35.9 °F 35.6 °F 87% 30.42 in 6.2 mi NNE 4.6 mph - N/A   Partly Cloudy
10:00 PM 39.2 °F 37.0 °F 37.4 °F 93% 30.42 in 6.2 mi NNE 3.5 mph - N/A   Partly Cloudy
11:00 PM 39.2 °F 35.9 °F 35.6 °F 87% 30.42 in 6.2 mi NNE 4.6 mph - N/A   Partly Cloudy